Погода в Комрате

Погода в Комрате : погода сейчас, прогноз погоды и архив. Всё, что Вы хотите узнать о погоде в Комрате!

Поиск расширенной информации на нашем сайте:

Другие новости

Новости СМИ2

Главная страница сайта

Новости сайта

02.10.2013

Напоминаем, что на нашем новом сайте вы можете получить высокодетализированные прогнозы погоды по пунктам России, СНГ и мира (включающие важные для авиации метеовеличины, такие как направление и скорость ветра, видимость, явления погоды, количество и форма облачности, нижняя и верхняя граница облачности), а также ознакомиться с разнообразными материалами по авиационной метеорологии и подборкой полезных ссылок на эту тему.

Сайт Метеоцентр.Азия посвящён разработке технологий оптимизации авиаметеорологического обслуживания, включая проектирование и перспективное создание нескольких автоматизированных авиаметеорологических систем:
- система выпуска высокодетальных прогностических карт явлений погоды для нижнего воздушного пространства по России и ближнему зарубежью;
- система верификации прогнозов TAF (выпускаемых синоптиками официальных АМСГ РФ и ближнего зарубежья) и AUTOTAF (выпускаемых сайтом Метеоцентр.Азия) - выявление ошибок, онлайн-сопоставление с фактической погодой METAR, автоматическое внесение коррективов в прогнозы при резком отклонении фактической погоды от прогноза, подсчёт оправдываемости прогнозов по элементам и в целом;
- система обработки, анализа и отображения авиаметеорологической информации для применения провайдерами метеорологической информации.

Рекомендуем: Важные правила бессолевой диеты для беременных.

Погода в Комрате - сегодня

Время (UTC), дата Ветер
(°,м/с) 
Видим.   Явления Облачность Т
(°С)
Тd
(°С)
f(%) Тe
(°С)
Pmin
(гПа)
dP
(гПа)
Po
(мм)
O2
(г/м3)
Тmin Tmax R s Состояние
почвы
06 23.05.17 010 (С) 20000 м    ясно 
+16.9 +7.5 54 +18  1017.7  1.4  751  284  +10         
09 23.05.17 040 (СВ) 20000 м    4/4 1000 м 
[Cu med, cong]
+21.2 +3.9 32 +21  1017.9  0.4  752  280           
12 23.05.17 040 (СВ) 20000 м    5/5 1000 м 
[Cu hum]
+22.5 +3.1 28 +23  1017.3  -0.5  751  279           
15 23.05.17 030 (СВ) 20000 м    4/4 1000 м 
[Cu hum]
+22.4 +3.5 29 +22  1016.2  -1.1  750  279           
18 23.05.17 160 (Ю) 20000 м    ясно 
+17.6 +7.9 53 +18  1017.2  0.8  751  283    +23.3       
21 23.05.17 190 (Ю) 10 км    ясно 
+12.5 +8.6 77 +13  1018.5  752  288           
00 24.05.17 200 (Ю) 10 км    ясно 
+10.7 +8.3 85 +12  1018.3  -0.3  751  290           
03 24.05.17 130 (ЮВ) 20000 м    ясно 
+10 +7.1 82 +11  1017.8  -0.6  751  291           
06 24.05.17 170 (Ю) 20000 м    ясно 
+17.8 +7.8 52 +18  1017.5  0.2  751  283  +9.5         
09 24.05.17 150 (ЮВ) 20000 м    ясно 
+22.1 +6.3 36 +22  1017.2  -0.1  751  279           
12 24.05.17 180 (Ю) 20000 м    3/1 1000 м верхняя 
[Cu hum|Ci fib]
+23.1 +5.5 32 +23  1015.7  -1.4  750  278           
15 24.05.17 150 (ЮВ) 20000 м    3/3 1000 м верхняя 
[Cu hum|Ci fib]
+21.7 +5.2 34 +22  1014.8  -1  749  279           
18 24.05.17 170 (Ю) 20000 м    3/0 верхняя 
[Ci fib]
+16.1 +6.8 54 +16  1015.6  0.5  750  284    +23.8       
21 24.05.17 160 (Ю) 10 км    ясно 
+11.9 +7.8 76 +12  1016.2  0.4  750  288           
00 25.05.17 190 (Ю) 10 км    ясно 
+10.2 +7.8 85 +11  1015.8  -0.5  750  290           
03 25.05.17 150 (ЮВ) 10 км    3/0 верхняя 
[Ci fib]
+9.5 +8.9 96 +11  1015.9  750  290           
06 25.05.17 170 (Ю) 20000 м    3/0 верхняя 
[Ci fib]
+16.8 +10 64 +18  1015.6  0.2  750  283  +9         
09 25.05.17 150 (ЮВ) 20000 м    3/0 верхняя 
[Ci fib]
+19.9 +4 35 +20  1015.8  0.3  750  281           
12 25.05.17 150 (ЮВ) 20000 м    8/6 600 м верхняя 
[Cu hum|Ci sp]
+20.9 +6.8 40 +21  1015  -0.7  749  279           
15 25.05.17 130 (ЮВ) 20000 м    8/8 600 м кучево-дожд., верхняя 
[Cb calv|Ci fib]
+20.4 +9 48 +20  1014.5  -0.5  749  279           
18 25.05.17 120 (ЮВ) 20000 м    6/0 верхняя 
[Ci]
+15.8 +11.8 77 +20  1015.4  0.6  749  283    +22.2       
21 25.05.17 190 (Ю) 10 км    4/0 верхняя 
[Ci]
+12.4 +11.1 92 +17  1016.4  0.8  750  287           
00 26.05.17 190 (Ю) 10 км    ясно 
+11 +10.4 96 +14  1016.3  -0.2  750  289           
03 26.05.17 350 (С) 0500 м  туман  ?/?  
+10 +9.7 98 +12  1016.2  -0.1  750  290           
06 26.05.17 тихо ()   10 км  {туман}  8/8 600 м 
[Sc]
+13.3 +13.1 99 +19  1016.2  0.2  750  286  +9.7         
Время (UTC), дата Ветер
(°,м/с) 
Видим.   Явления Облачность Т
(°С)
Тd
(°С)
f(%) Тe
(°С)
Pmin
(гПа)
dP
(гПа)
Po
(мм)
O2
(г/м3)
Тmin Tmax R s Состояние
почвы

Для получения пояснительной информации подведите курсор к названию столбца.

ПОГОДА в Комрате - архив

Всё, что Вы хотите узнать о погоде в Комрате - удобно и подробно!

Выберите нужную дату (начиная с 1 января 2015* года) и нажмите кнопку "Найти".
Будут отображены архивные сводки погоды по пункту Комрат, начиная с указанной даты.


Отображать данные в формате CSV (для использования в таблицах Excel)


Внимание! Наш архив погоды предназначен исключительно для личного некоммерческого использования в познавательных целях. Если Вам необходимы официальные справки о состоянии погоды (для производственных, юридических, коммерческих и т.п. целей), обращайтесь в органы Росгидромета.

*Примечание: данная дата относится к архиву по метеостанциям СССР (Россия, СНГ, Балтия).
Архив по метеостанциям Зарубежной Европы и Азии (кроме Китая) хранится 10 дней, по другим регионам земного шара (Китай, Африка, Америка, Австралия, Океания) - 1 день.

Комрат - район местоположения метеостанции


Название, широта, долгота, высота метеостанции:
Комрат 46.3°ш. 28.6°д. 133 м над ур. моря [Молдавия]

Дополнительная информация

В oтличие oт бoльшинства пoгoдных сайтoв мы публикуем пoдрoбную метеoинфoрмацию в детальнoм прoфессиoнальнoм фoрмате.

Характеристики температуры и влажнoсти вoздуха измеряются на высoте 2 м в тени вдали oт зданий и деревьев.
Скoрoсть ветра измеряется на высoте 10 м (на урoвне рoста челoвека скoрoсть ветра ниже в 1.5-2 раза). Если метеoстанция нахoдится в гoрoде или в лесу, тo скoрoсть ветра занижена на 2-4 м/с пo сравнению с oткрытым местoм. Скoрoсть ветра над акватoриями крупных рек и oзёр, а также на вершинах хoлмoв на 2-5 м/с выше, чем в oбычных услoвиях.
Атмoсфернoе давление в разных тoчках местнoсти мoжет значительнo oтличаться oт давления на метеoстанции, в зависимoсти oт услoвий рельефа (при пoдъёме на 10 м давление пoнижается примернo на 1 мм рт.ст.).